Location: Aula-Vintri
(58.3875°N, 22.4322°E)
Time: 13:08:30
(UTC+00:00)

SPOT 1/Viking Rocket - Pass Details

Date: 13 October 2019
Orbit: 778 x 793 km, 98.5° (Epoch: 16 November)

Event Time Altitude Azimuth Distance (km) Brightness Sun altitude
Exits shadow 18:56:48 47° 33° (NNE) 1,034 4.1 -26.8°
Drops below altitude 10° 19:01:00 10° 349° (N) 2,346 6.5 -27.3°
Sets 19:03:23 0° 345° (NNW) 3,278 7.5 -27.5°
